Location: Baller�as
(41.9020°N, 0.1554°W)
Time: 11:53:22
(UTC+00:00)

Cosmos 2278 - Pass Details

Date: 10 August 2020
Orbit: 839 x 853 km, 71.1° (Epoch: 21 September)

Event Time Altitude Azimuth Distance (km) Brightness Sun altitude
Rises 21:21:51 0° 332° (NNW) 3,430 8.2 -21.5°
Reaches altitude 10° 21:24:20 10° 328° (NNW) 2,489 7.3 -21.8°
Maximum altitude 21:29:55 58° 251° (WSW) 991 4.1 -22.5°
Enters shadow 21:32:04 36° 191° (S) 1,323 4.4 -22.8°
